M I D A S
Marine Information and Data Acquisition System
Tripno 908 of the Zeeleeuw from 2005-06-02 09:22:34 to 2005-06-02 13:49:12
Back to CruiseResearch ActivitiesStationsMapUnderway DataData graphs

EquipmentUnitsComments
TimeDGPSUTC
LatitudeDGPSDM.mWGS84
LongitudeDGPSDM.mWGS84
SpeedMeteo Stationm/sRelative wind speed
DirectionMeteo StationdegRelative wind direction
TemperatureMeteo Stationdeg CelciusAir temperature
PressureMeteo StationPaAtmospheric pressure
HumidityMeteo Station%Relative humidity
Missing or incorrect values are displayed as -999
Metereological data collected by the RV Zeeleeuw from 2005-06-02 06:40:46 to 2005-06-02 13:50:30
                                                                                    Next 1000 lines
Time Latitude Longitude Speed Direction Temperature Pressure Humidity
2005-06-02 06:40:56 51°13.587 2°56.108 2.8 136 13.4 101660 96
2005-06-02 06:41:00 51°13.59 2°56.109 2.3 144 13.4 101660 96
2005-06-02 06:41:06 51°13.596 2°56.109 2.7 144 13.4 101650 96
2005-06-02 06:41:11 51°13.596 2°56.109 2.8 135 13.4 101650 96
2005-06-02 06:41:16 51°13.596 2°56.109 2.5 135 13.4 101660 96
2005-06-02 06:41:20 51°13.597 2°56.109 2.7 145 13.4 101660 96
2005-06-02 06:41:26 51°13.596 2°56.109 2.3 147 13.4 101660 96
2005-06-02 06:41:31 51°13.596 2°56.109 3.6 42 13.4 101660 96
2005-06-02 06:41:36 51°13.596 2°56.109 3.9 138 13.4 101660 97
2005-06-02 06:41:40 51°13.596 2°56.109 5.5 134 13.4 101660 97
2005-06-02 06:41:45 51°13.596 2°56.109 4.2 122 13.4 101660 97
2005-06-02 06:41:51 51°13.597 2°56.109 6.3 131 13.4 101660 97
2005-06-02 06:41:56 51°13.597 2°56.109 7.5 114 13.4 101650 97
2005-06-02 06:42:00 51°13.597 2°56.109 6.2 131 13.4 101650 97
2005-06-02 06:42:06 51°13.597 2°56.109 5.7 138 13.4 101660 96
2005-06-02 06:42:11 51°13.597 2°56.109 5.5 133 13.4 101660 96
2005-06-02 06:42:16 51°13.597 2°56.109 4.4 113 13.4 101650 96
2005-06-02 06:42:20 51°13.597 2°56.109 5.2 124 13.4 101650 96
2005-06-02 06:42:26 51°13.597 2°56.109 5.4 126 13.4 101650 96
2005-06-02 06:42:31 51°13.597 2°56.108 5.1 109 13.4 101650 96
2005-06-02 06:42:36 51°13.597 2°56.108 5.2 115 13.4 101650 96
2005-06-02 06:42:40 51°13.597 2°56.108 4 139 13.4 101650 96
2005-06-02 06:42:46 51°13.597 2°56.108 3.9 129 13.4 101650 96
2005-06-02 06:42:51 51°13.597 2°56.108 4.5 131 13.4 101650 96
2005-06-02 06:42:56 51°13.597 2°56.108 6.5 137 13.4 101650 96
2005-06-02 06:43:01 51°13.597 2°56.109 6.3 144 13.4 101650 96
2005-06-02 06:43:06 51°13.597 2°56.108 5.3 132 13.4 101650 96
2005-06-02 06:43:11 51°13.597 2°56.108 6.4 135 13.4 101650 96
2005-06-02 06:43:16 51°13.597 2°56.108 6.6 127 13.4 101650 96
2005-06-02 06:43:20 51°13.597 2°56.108 5.8 120 13.4 101650 96
2005-06-02 06:43:26 51°13.597 2°56.108 5.2 119 13.4 101650 96
2005-06-02 06:43:31 51°13.598 2°56.108 6.5 119 13.4 101650 96
2005-06-02 06:43:35 51°13.598 2°56.108 5.7 138 13.4 101650 96
2005-06-02 06:43:40 51°13.598 2°56.108 5.1 145 13.4 101650 96
2005-06-02 06:43:45 51°13.598 2°56.108 4.4 153 13.4 101650 96
2005-06-02 06:43:51 51°13.598 2°56.108 3.4 103 13.4 101650 96
2005-06-02 06:43:56 51°13.598 2°56.108 3.1 123 13.4 101650 96
2005-06-02 06:44:00 51°13.598 2°56.108 3 132 13.4 101650 96
2005-06-02 06:44:05 51°13.598 2°56.108 3.3 118 13.4 101650 96
2005-06-02 06:44:11 51°13.599 2°56.108 3 135 13.4 101650 96
2005-06-02 06:44:16 51°13.599 2°56.108 3.7 147 13.3 101650 96
2005-06-02 06:44:20 51°13.599 2°56.108 3.8 169 13.3 101650 96
2005-06-02 06:44:25 51°13.599 2°56.108 5 155 13.4 101650 96
2005-06-02 06:44:31 51°13.599 2°56.108 4.8 144 13.4 101650 96
2005-06-02 06:44:36 51°13.599 2°56.108 4.5 137 13.4 101650 96
2005-06-02 06:44:40 51°13.599 2°56.108 4.3 120 13.4 101650 96
2005-06-02 06:44:45 51°13.599 2°56.108 6.2 148 13.4 101650 96
2005-06-02 06:44:51 51°13.599 2°56.108 6.1 131 13.4 101650 96
2005-06-02 06:44:55 51°13.599 2°56.108 6.1 138 13.4 101650 96
2005-06-02 06:45:00 51°13.599 2°56.108 5.6 122 13.4 101650 96
2005-06-02 06:45:06 51°13.6 2°56.108 5.6 115 13.4 101640 96
2005-06-02 06:45:11 51°13.6 2°56.108 5.4 160 13.4 101640 96
2005-06-02 06:45:16 51°13.6 2°56.108 4.2 146 13.3 101650 96
2005-06-02 06:45:20 51°13.599 2°56.108 4.3 226 13.3 101650 96
2005-06-02 06:45:25 51°13.599 2°56.108 4.7 135 13.4 101640 96
2005-06-02 06:45:31 51°13.599 2°56.108 4.2 140 13.4 101640 96
2005-06-02 06:45:35 51°13.599 2°56.108 5 153 13.4 101650 96
2005-06-02 06:45:40 51°13.599 2°56.108 3.4 116 13.4 101650 96
2005-06-02 06:45:45 51°13.599 2°56.108 3.5 88 13.4 101640 96
2005-06-02 06:45:51 51°13.599 2°56.108 4.1 135 13.4 101640 96
2005-06-02 06:45:55 51°13.599 2°56.108 6.7 139 13.4 101640 96
2005-06-02 06:46:00 51°13.599 2°56.108 5.5 120 13.4 101640 96
2005-06-02 06:46:05 51°13.599 2°56.108 5 114 13.4 101650 96
2005-06-02 06:46:11 51°13.599 2°56.108 5.3 122 13.4 101650 96
2005-06-02 06:46:15 51°13.599 2°56.108 5.3 138 13.4 101640 96
2005-06-02 06:46:20 51°13.599 2°56.108 3.7 134 13.4 101640 96
2005-06-02 06:46:25 51°13.599 2°56.108 3.4 135 13.4 101640 96
2005-06-02 06:46:31 51°13.599 2°56.108 3.2 144 13.4 101640 96
2005-06-02 06:46:35 51°13.599 2°56.108 3.2 138 13.4 101640 96
2005-06-02 06:46:40 51°13.599 2°56.108 1.9 127 13.4 101640 96
2005-06-02 06:46:45 51°13.599 2°56.109 2.1 161 13.4 101640 96
2005-06-02 06:46:50 51°13.599 2°56.109 2.7 137 13.4 101640 96
2005-06-02 06:46:55 51°13.599 2°56.109 3.7 45 13.4 101640 96
2005-06-02 06:47:00 51°13.599 2°56.109 3.1 141 13.4 101640 96
2005-06-02 06:47:05 51°13.599 2°56.109 2.9 129 13.4 101640 96
2005-06-02 06:47:10 51°13.599 2°56.109 3 117 13.4 101640 96
2005-06-02 06:47:15 51°13.599 2°56.109 3.9 113 13.4 101640 96
2005-06-02 06:47:20 51°13.599 2°56.109 4.3 122 13.4 101640 96
2005-06-02 06:47:25 51°13.599 2°56.109 4.1 107 13.4 101640 96
2005-06-02 06:47:30 51°13.599 2°56.109 3.6 118 13.4 101640 96
2005-06-02 06:47:35 51°13.599 2°56.109 3.9 123 13.4 101640 96
2005-06-02 06:47:40 51°13.599 2°56.109 5.2 131 13.4 101640 96
2005-06-02 06:47:45 51°13.599 2°56.109 6.8 145 13.5 101650 96
2005-06-02 06:47:50 51°13.599 2°56.109 3.4 116 13.5 101650 96
2005-06-02 06:47:55 51°13.599 2°56.109 3.2 165 13.5 101640 96
2005-06-02 06:48:00 51°13.599 2°56.109 5.8 131 13.5 101640 96
2005-06-02 06:48:05 51°13.599 2°56.109 5.6 113 13.4 101640 96
2005-06-02 06:48:11 51°13.599 2°56.108 5 106 13.4 101640 96
2005-06-02 06:48:15 51°13.599 2°56.108 5.9 133 13.4 101640 95
2005-06-02 06:48:20 51°13.599 2°56.108 5.7 130 13.4 101640 95
2005-06-02 06:48:25 51°13.599 2°56.109 5.4 125 13.4 101640 95
2005-06-02 06:48:31 51°13.599 2°56.108 4.9 93 13.4 101640 95
2005-06-02 06:48:35 51°13.599 2°56.108 4.8 104 13.4 101640 95
2005-06-02 06:48:40 51°13.599 2°56.108 5.1 132 13.4 101640 95
2005-06-02 06:48:45 51°13.599 2°56.108 5.7 129 13.4 101640 95
2005-06-02 06:48:51 51°13.599 2°56.108 5.8 121 13.4 101640 95
2005-06-02 06:48:55 51°13.599 2°56.108 6.4 133 13.4 101650 95
2005-06-02 06:49:00 51°13.599 2°56.108 6.1 125 13.4 101650 95
2005-06-02 06:49:05 51°13.599 2°56.108 5.5 136 13.4 101640 95
2005-06-02 06:49:11 51°13.599 2°56.108 5.6 165 13.4 101640 95
2005-06-02 06:49:15 51°13.599 2°56.108 6.3 151 13.4 101640 95
2005-06-02 06:49:20 51°13.599 2°56.108 5.1 129 13.4 101640 95
2005-06-02 06:49:25 51°13.599 2°56.108 5 140 13.4 101640 95
2005-06-02 06:49:30 51°13.599 2°56.108 5.2 107 13.4 101640 95
2005-06-02 06:49:35 51°13.599 2°56.108 5.3 111 13.4 101640 95
2005-06-02 06:49:40 51°13.599 2°56.108 4.5 120 13.4 101640 95
2005-06-02 06:49:45 51°13.599 2°56.108 5.4 118 13.4 101640 95
2005-06-02 06:49:50 51°13.599 2°56.108 4.1 119 13.4 101640 95
2005-06-02 06:49:55 51°13.599 2°56.108 4.2 128 13.4 101640 95
2005-06-02 06:50:00 51°13.599 2°56.108 5.9 135 13.4 101640 95
2005-06-02 06:50:05 51°13.599 2°56.108 6.8 139 13.4 101640 95
2005-06-02 06:50:10 51°13.599 2°56.108 4.6 132 13.4 101640 95
2005-06-02 06:50:15 51°13.599 2°56.108 4.1 130 13.4 101640 95
2005-06-02 06:50:20 51°13.599 2°56.108 3.9 141 13.4 101640 95
2005-06-02 06:50:25 51°13.599 2°56.108 4.3 226 13.4 101640 95
2005-06-02 06:50:31 51°13.599 2°56.108 3.4 127 13.4 101640 95
2005-06-02 06:50:35 51°13.599 2°56.108 3.4 132 13.4 101640 95
2005-06-02 06:50:40 51°13.599 2°56.108 3.2 112 13.4 101640 95
2005-06-02 06:50:45 51°13.599 2°56.108 3.7 106 13.4 101640 95
2005-06-02 06:50:51 51°13.599 2°56.108 3.4 136 13.4 101640 95
2005-06-02 06:50:55 51°13.599 2°56.108 3.6 146 13.4 101640 95
2005-06-02 06:51:00 51°13.599 2°56.108 4.7 113 13.4 101640 95
2005-06-02 06:51:05 51°13.598 2°56.108 4.4 105 13.4 101640 95
2005-06-02 06:51:11 51°13.598 2°56.108 3.1 126 13.4 101640 95
2005-06-02 06:51:15 51°13.598 2°56.108 2.6 144 13.4 101640 95
2005-06-02 06:51:20 51°13.598 2°56.108 2.5 131 13.4 101640 95
2005-06-02 06:51:25 51°13.598 2°56.108 3.1 145 13.4 101640 95
2005-06-02 06:51:30 51°13.598 2°56.108 2.9 133 13.4 101640 95
2005-06-02 06:51:35 51°13.599 2°56.108 2.3 137 13.4 101640 95
2005-06-02 06:51:40 51°13.599 2°56.108 3.2 112 13.4 101640 95
2005-06-02 06:51:46 51°13.598 2°56.108 3.1 118 13.4 101640 95
2005-06-02 06:51:50 51°13.598 2°56.108 3.6 143 13.4 101640 95
2005-06-02 06:51:56 51°13.598 2°56.108 3.6 129 13.5 101640 95
2005-06-02 06:52:01 51°13.598 2°56.108 2.5 145 13.5 101640 95
2005-06-02 06:52:06 51°13.598 2°56.108 3.3 168 13.5 101640 95
2005-06-02 06:52:10 51°13.598 2°56.108 2.2 153 13.5 101640 95
2005-06-02 06:52:15 51°13.598 2°56.108 2.3 150 13.5 101640 95
2005-06-02 06:52:21 51°13.598 2°56.108 2.6 143 13.5 101640 95
2005-06-02 06:52:26 51°13.598 2°56.108 2.4 138 13.5 101640 95
2005-06-02 06:52:30 51°13.598 2°56.108 2.1 148 13.5 101640 95
2005-06-02 06:52:35 51°13.598 2°56.108 3 170 13.5 101640 95
2005-06-02 06:52:41 51°13.598 2°56.108 3.1 150 13.5 101640 95
2005-06-02 06:52:46 51°13.598 2°56.108 3.3 137 13.5 101640 95
2005-06-02 06:52:51 51°13.599 2°56.108 5.4 168 13.5 101640 95
2005-06-02 06:52:56 51°13.599 2°56.108 4.7 147 13.5 101640 95
2005-06-02 06:53:01 51°13.599 2°56.108 4 139 13.5 101640 95
2005-06-02 06:53:05 51°13.599 2°56.108 4.5 146 13.5 101640 95
2005-06-02 06:53:11 51°13.599 2°56.108 4.4 154 13.5 101640 95
2005-06-02 06:53:16 51°13.599 2°56.108 3.9 155 13.5 101640 95
2005-06-02 06:53:21 51°13.599 2°56.108 2.8 144 13.5 101640 95
2005-06-02 06:53:25 51°13.599 2°56.108 3.4 153 13.5 101640 95
2005-06-02 06:53:30 51°13.599 2°56.108 4.5 148 13.5 101640 95
2005-06-02 06:53:36 51°13.599 2°56.108 4.2 133 13.5 101640 95
2005-06-02 06:53:41 51°13.599 2°56.108 4.3 138 13.5 101640 95
2005-06-02 06:53:45 51°13.599 2°56.108 5.9 132 13.5 101640 95
2005-06-02 06:53:50 51°13.599 2°56.108 5.2 120 13.5 101640 95
2005-06-02 06:53:56 51°13.599 2°56.108 4.9 127 13.5 101640 95
2005-06-02 06:54:01 51°13.599 2°56.108 3.5 145 13.5 101640 95
2005-06-02 06:54:05 51°13.599 2°56.108 4.3 108 13.5 101640 95
2005-06-02 06:54:10 51°13.599 2°56.108 4 112 13.5 101640 95
2005-06-02 06:54:15 51°13.599 2°56.108 3.4 118 13.5 101640 95
2005-06-02 06:54:21 51°13.599 2°56.108 2.9 135 13.5 101640 95
2005-06-02 06:54:25 51°13.599 2°56.108 3.3 141 13.5 101640 95
2005-06-02 06:54:30 51°13.599 2°56.108 3.1 147 13.5 101640 95
2005-06-02 06:54:36 51°13.599 2°56.108 2.9 145 13.5 101640 95
2005-06-02 06:54:41 51°13.599 2°56.108 2.3 130 13.5 101640 95
2005-06-02 06:54:45 51°13.599 2°56.108 2.7 132 13.5 101640 95
2005-06-02 06:54:50 51°13.599 2°56.108 2.7 131 13.5 101640 95
2005-06-02 06:54:56 51°13.599 2°56.108 3 129 13.5 101640 95
2005-06-02 06:55:00 51°13.599 2°56.108 3.3 121 13.5 101640 95
2005-06-02 06:55:05 51°13.599 2°56.108 3.4 123 13.5 101640 95
2005-06-02 06:55:10 51°13.599 2°56.108 3.1 139 13.5 101640 95
2005-06-02 06:55:16 51°13.599 2°56.108 3 142 13.5 101640 95
2005-06-02 06:55:20 51°13.599 2°56.108 2.4 151 13.5 101640 95
2005-06-02 06:55:25 51°13.599 2°56.108 2.3 149 13.5 101640 95
2005-06-02 06:55:30 51°13.599 2°56.108 2.1 137 13.5 101640 95
2005-06-02 06:55:36 51°13.599 2°56.108 2.3 150 13.5 101640 95
2005-06-02 06:55:40 51°13.599 2°56.108 2.7 115 13.5 101640 95
2005-06-02 06:55:45 51°13.599 2°56.108 2.4 116 13.6 101640 95
2005-06-02 06:55:50 51°13.599 2°56.108 2.2 135 13.6 101640 95
2005-06-02 06:55:55 51°13.599 2°56.108 2 134 13.6 101640 95
2005-06-02 06:56:01 51°13.599 2°56.108 3 149 13.6 101640 95
2005-06-02 06:56:06 51°13.599 2°56.108 3.3 146 13.5 101640 94
2005-06-02 06:56:10 51°13.599 2°56.108 3.2 153 13.5 101640 94
2005-06-02 06:56:16 51°13.599 2°56.108 2.8 151 13.6 101640 94
2005-06-02 06:56:21 51°13.599 2°56.108 4.2 151 13.6 101640 94
2005-06-02 06:56:26 51°13.599 2°56.108 4.9 177 13.5 101640 94
2005-06-02 06:56:30 51°13.599 2°56.108 2.9 134 13.5 101640 94
2005-06-02 06:56:36 51°13.599 2°56.108 4.4 111 13.6 101640 94
2005-06-02 06:56:41 51°13.599 2°56.108 3.2 159 13.6 101640 94
2005-06-02 06:56:46 51°13.599 2°56.108 3.5 153 13.5 101640 94
2005-06-02 06:56:50 51°13.599 2°56.108 3 135 13.5 101640 94
2005-06-02 06:56:56 51°13.599 2°56.108 2.9 140 13.5 101640 94
2005-06-02 06:57:01 51°13.599 2°56.108 4 119 13.5 101640 94
2005-06-02 06:57:06 51°13.599 2°56.108 3.8 119 13.5 101640 94
2005-06-02 06:57:10 51°13.599 2°56.108 2.9 138 13.5 101640 94
2005-06-02 06:57:16 51°13.599 2°56.108 3.1 45 13.5 101640 94
2005-06-02 06:57:21 51°13.599 2°56.108 3.1 140 13.5 101640 94
2005-06-02 06:57:26 51°13.599 2°56.108 3.2 138 13.5 101640 94
2005-06-02 06:57:30 51°13.599 2°56.108 2.9 141 13.5 101640 94
2005-06-02 06:57:36 51°13.599 2°56.108 2.4 140 13.5 101640 94
2005-06-02 06:57:40 51°13.599 2°56.108 3.4 115 13.5 101640 94
2005-06-02 06:57:46 51°13.599 2°56.107 3.4 118 13.6 101640 94
2005-06-02 06:57:50 51°13.599 2°56.107 3.5 122 13.6 101640 94
2005-06-02 06:57:56 51°13.599 2°56.108 3 123 13.5 101650 94
2005-06-02 06:58:01 51°13.599 2°56.108 2.6 138 13.5 101650 94
2005-06-02 06:58:06 51°13.599 2°56.107 2.6 130 13.5 101640 94
2005-06-02 06:58:10 51°13.599 2°56.107 2.7 133 13.5 101640 94
2005-06-02 06:58:16 51°13.599 2°56.107 2.4 130 13.6 101640 94
2005-06-02 06:58:21 51°13.599 2°56.108 2.5 134 13.6 101640 94
2005-06-02 06:58:26 51°13.599 2°56.108 2.9 137 13.6 101640 94
2005-06-02 06:58:30 51°13.599 2°56.108 3.9 157 13.6 101640 94
2005-06-02 06:58:36 51°13.599 2°56.108 3.7 164 13.6 101640 94
2005-06-02 06:58:41 51°13.599 2°56.108 3.3 154 13.6 101640 94
2005-06-02 06:58:46 51°13.599 2°56.108 3.7 162 13.6 101650 94
2005-06-02 06:58:50 51°13.599 2°56.108 2.2 143 13.6 101650 94
2005-06-02 06:58:55 51°13.599 2°56.108 2.6 150 13.6 101640 94
2005-06-02 06:59:01 51°13.599 2°56.108 3.3 145 13.6 101640 94
2005-06-02 06:59:06 51°13.599 2°56.108 3.2 132 13.6 101650 94
2005-06-02 06:59:10 51°13.598 2°56.108 3.8 152 13.6 101650 94
2005-06-02 06:59:16 51°13.598 2°56.108 4.3 149 13.6 101650 94
2005-06-02 06:59:21 51°13.598 2°56.108 3 228 13.6 101650 94
2005-06-02 06:59:26 51°13.598 2°56.108 3.7 133 13.6 101640 94
2005-06-02 06:59:31 51°13.599 2°56.108 3.1 140 13.6 101640 94
2005-06-02 06:59:36 51°13.598 2°56.108 2.7 138 13.6 101650 94
2005-06-02 06:59:41 51°13.598 2°56.108 2.3 225 13.6 101650 94
2005-06-02 06:59:46 51°13.598 2°56.108 2.5 137 13.6 101650 94
2005-06-02 06:59:50 51°13.598 2°56.108 2.7 150 13.6 101650 94
2005-06-02 06:59:55 51°13.598 2°56.108 2.7 156 13.6 101650 94
2005-06-02 07:00:00 51°13.598 2°56.108 4.2 146 13.6 101650 94
2005-06-02 07:00:05 51°13.598 2°56.108 3.3 162 13.6 101650 94
2005-06-02 07:00:10 51°13.598 2°56.108 2.6 151 13.6 101650 94
2005-06-02 07:00:15 51°13.598 2°56.108 2.4 148 13.6 101650 94
2005-06-02 07:00:21 51°13.598 2°56.108 2.9 141 13.6 101650 94
2005-06-02 07:00:25 51°13.598 2°56.108 3.3 147 13.6 101650 94
2005-06-02 07:00:30 51°13.598 2°56.108 2.9 172 13.6 101650 94
2005-06-02 07:00:35 51°13.598 2°56.108 3.1 152 13.6 101650 94
2005-06-02 07:00:41 51°13.598 2°56.108 2.4 154 13.6 101650 94
2005-06-02 07:00:45 51°13.598 2°56.108 1.9 144 13.6 101650 94
2005-06-02 07:00:50 51°13.598 2°56.108 3.5 149 13.6 101650 94
2005-06-02 07:00:55 51°13.598 2°56.108 3.4 136 13.6 101650 94
2005-06-02 07:01:00 51°13.598 2°56.108 2.7 139 13.6 101650 94
2005-06-02 07:01:05 51°13.598 2°56.108 2.9 141 13.6 101650 94
2005-06-02 07:01:10 51°13.598 2°56.108 2.3 148 13.6 101650 94
2005-06-02 07:01:15 51°13.598 2°56.108 2.6 163 13.6 101650 94
2005-06-02 07:01:21 51°13.598 2°56.108 3.3 150 13.6 101650 94
2005-06-02 07:01:25 51°13.598 2°56.108 3.5 163 13.6 101650 94
2005-06-02 07:01:30 51°13.598 2°56.108 3.5 138 13.6 101650 94
2005-06-02 07:01:35 51°13.598 2°56.108 4.6 136 13.6 101650 94
2005-06-02 07:01:41 51°13.598 2°56.108 3.4 112 13.6 101650 94
2005-06-02 07:01:45 51°13.598 2°56.108 3.9 119 13.6 101650 94
2005-06-02 07:01:50 51°13.598 2°56.108 4 121 13.6 101650 94
2005-06-02 07:01:55 51°13.598 2°56.108 3.7 121 13.6 101650 94
2005-06-02 07:02:00 51°13.598 2°56.108 4.4 112 13.6 101650 94
2005-06-02 07:02:05 51°13.598 2°56.108 4.2 109 13.6 101650 94
2005-06-02 07:02:10 51°13.598 2°56.108 2.6 131 13.6 101650 94
2005-06-02 07:02:15 51°13.598 2°56.108 3.2 124 13.6 101650 94
2005-06-02 07:02:20 51°13.598 2°56.108 2.9 134 13.6 101650 94
2005-06-02 07:02:25 51°13.598 2°56.108 2.7 119 13.6 101640 94
2005-06-02 07:02:30 51°13.598 2°56.108 2.3 134 13.6 101640 94
2005-06-02 07:02:35 51°13.598 2°56.108 2.7 115 13.6 101650 94
2005-06-02 07:02:40 51°13.598 2°56.108 2.5 129 13.6 101650 94
2005-06-02 07:02:45 51°13.598 2°56.108 2.6 122 13.6 101650 94
2005-06-02 07:02:50 51°13.598 2°56.108 2.9 137 13.6 101650 94
2005-06-02 07:02:55 51°13.598 2°56.108 2.6 150 13.6 101650 94
2005-06-02 07:03:00 51°13.598 2°56.108 3.7 106 13.6 101650 94
2005-06-02 07:03:05 51°13.598 2°56.108 3.7 109 13.6 101640 94
2005-06-02 07:03:10 51°13.598 2°56.108 3.7 140 13.6 101640 94
2005-06-02 07:03:15 51°13.598 2°56.108 3.9 139 13.6 101650 94
2005-06-02 07:03:21 51°13.598 2°56.108 3.7 120 13.6 101650 94
2005-06-02 07:03:25 51°13.598 2°56.108 3.5 125 13.6 101650 94
2005-06-02 07:03:30 51°13.598 2°56.108 3.2 137 13.6 101650 94
2005-06-02 07:03:35 51°13.598 2°56.108 2.9 150 13.6 101650 94
2005-06-02 07:03:41 51°13.598 2°56.108 2.4 125 13.6 101650 94
2005-06-02 07:03:45 51°13.598 2°56.108 2.3 127 13.6 101650 94
2005-06-02 07:03:50 51°13.598 2°56.108 3.5 136 13.6 101650 94
2005-06-02 07:03:55 51°13.598 2°56.108 4.2 133 13.6 101650 94
2005-06-02 07:04:00 51°13.598 2°56.108 3 118 13.6 101650 94
2005-06-02 07:04:05 51°13.598 2°56.108 3.3 117 13.7 101650 94
2005-06-02 07:04:11 51°13.598 2°56.108 3.2 120 13.7 101650 94
2005-06-02 07:04:15 51°13.598 2°56.108 3.3 128 13.7 101650 94
2005-06-02 07:04:21 51°13.598 2°56.108 2.4 133 13.7 101650 94
2005-06-02 07:04:26 51°13.599 2°56.108 2.5 139 13.6 101650 94
2005-06-02 07:04:31 51°13.599 2°56.108 2.5 115 13.6 101650 94
2005-06-02 07:04:35 51°13.599 2°56.108 2.6 105 13.7 101650 94
2005-06-02 07:04:41 51°13.599 2°56.108 2 181 13.7 101650 94
2005-06-02 07:04:46 51°13.599 2°56.108 2.3 141 13.7 101640 94
2005-06-02 07:04:51 51°13.599 2°56.108 2.4 130 13.7 101640 94
2005-06-02 07:04:56 51°13.599 2°56.108 2.5 132 13.6 101650 94
2005-06-02 07:05:01 51°13.599 2°56.108 1.9 124 13.6 101650 94
2005-06-02 07:05:06 51°13.599 2°56.108 2.1 134 13.6 101640 94
2005-06-02 07:05:11 51°13.599 2°56.108 2 136 13.6 101640 94
2005-06-02 07:05:16 51°13.599 2°56.108 2.2 133 13.6 101650 94
2005-06-02 07:05:21 51°13.599 2°56.108 2.2 109 13.6 101650 94
2005-06-02 07:05:26 51°13.599 2°56.108 2.6 100 13.6 101650 93
2005-06-02 07:05:31 51°13.599 2°56.108 1.8 119 13.6 101650 93
2005-06-02 07:05:36 51°13.599 2°56.108 1.8 129 13.6 101650 94
2005-06-02 07:05:41 51°13.599 2°56.108 1.9 120 13.6 101650 94
2005-06-02 07:05:46 51°13.599 2°56.108 1.8 120 13.7 101650 94
2005-06-02 07:05:51 51°13.599 2°56.108 2.1 126 13.7 101650 94
2005-06-02 07:05:55 51°13.599 2°56.108 1.7 124 13.6 101640 94
2005-06-02 07:06:01 51°13.599 2°56.108 1.6 117 13.6 101640 94
2005-06-02 07:06:06 51°13.599 2°56.109 1.6 102 13.6 101640 94
2005-06-02 07:06:11 51°13.6 2°56.108 1.4 92 13.6 101640 94
2005-06-02 07:06:15 51°13.599 2°56.108 1.3 108 13.6 101640 94
2005-06-02 07:06:21 51°13.6 2°56.108 1.4 139 13.6 101640 94
2005-06-02 07:06:26 51°13.6 2°56.108 1.3 136 13.7 101650 94
2005-06-02 07:06:31 51°13.6 2°56.109 1.4 130 13.7 101650 94
2005-06-02 07:06:35 51°13.6 2°56.109 2 142 13.7 101640 94
2005-06-02 07:06:41 51°13.6 2°56.108 3.1 164 13.7 101640 94
2005-06-02 07:06:46 51°13.6 2°56.109 2.6 139 13.7 101640 94
2005-06-02 07:06:51 51°13.6 2°56.108 2 159 13.7 101640 94
2005-06-02 07:06:55 51°13.6 2°56.108 1.8 161 13.7 101640 94
2005-06-02 07:07:01 51°13.6 2°56.108 2.1 155 13.7 101640 94
2005-06-02 07:07:06 51°13.6 2°56.108 2.8 154 13.7 101640 94
2005-06-02 07:07:11 51°13.6 2°56.108 3.6 151 13.7 101640 94
2005-06-02 07:07:16 51°13.6 2°56.108 3.4 147 13.7 101650 94
2005-06-02 07:07:21 51°13.6 2°56.108 2.6 122 13.7 101650 94
2005-06-02 07:07:25 51°13.6 2°56.108 2.4 99 13.7 101650 94
2005-06-02 07:07:31 51°13.6 2°56.108 2.8 108 13.7 101650 94
2005-06-02 07:07:36 51°13.6 2°56.108 2.5 122 13.7 101640 94
2005-06-02 07:07:41 51°13.6 2°56.108 2.3 121 13.7 101640 94
2005-06-02 07:07:46 51°13.6 2°56.108 1.9 134 13.7 101650 94
2005-06-02 07:07:51 51°13.6 2°56.108 1.9 131 13.7 101650 94
2005-06-02 07:07:56 51°13.6 2°56.108 2 113 13.7 101640 94
2005-06-02 07:08:01 51°13.6 2°56.108 1.7 128 13.7 101640 94
2005-06-02 07:08:06 51°13.6 2°56.108 2.2 164 13.7 101650 94
2005-06-02 07:08:11 51°13.6 2°56.108 2 160 13.7 101650 94
2005-06-02 07:08:15 51°13.6 2°56.108 3.1 126 13.7 101640 94
2005-06-02 07:08:21 51°13.6 2°56.108 2.8 149 13.7 101640 94
2005-06-02 07:08:26 51°13.6 2°56.108 2.2 126 13.7 101640 94
2005-06-02 07:08:31 51°13.6 2°56.109 1.6 121 13.7 101640 94
2005-06-02 07:08:35 51°13.6 2°56.109 2.3 143 13.7 101650 94
2005-06-02 07:08:41 51°13.6 2°56.109 2.4 140 13.7 101650 94
2005-06-02 07:08:46 51°13.6 2°56.109 2.9 152 13.7 101650 94
2005-06-02 07:08:51 51°13.6 2°56.109 2.5 133 13.7 101650 94
2005-06-02 07:08:55 51°13.6 2°56.109 2.8 106 13.7 101650 94
2005-06-02 07:09:00 51°13.6 2°56.109 1.8 135 13.7 101650 94
2005-06-02 07:09:06 51°13.6 2°56.109 1.6 141 13.7 101640 94
2005-06-02 07:09:11 51°13.6 2°56.109 3.2 155 13.7 101640 94
2005-06-02 07:09:15 51°13.6 2°56.109 2.8 148 13.7 101640 93
2005-06-02 07:09:21 51°13.599 2°56.109 2.5 133 13.7 101640 93
2005-06-02 07:09:25 51°13.599 2°56.109 1.9 109 13.7 101640 94
2005-06-02 07:09:31 51°13.599 2°56.109 1.8 121 13.7 101640 94
2005-06-02 07:09:35 51°13.599 2°56.109 1.9 121 13.7 101650 94
2005-06-02 07:09:41 51°13.599 2°56.109 2.4 108 13.7 101650 94
2005-06-02 07:09:45 51°13.599 2°56.109 2.6 121 13.7 101650 94
2005-06-02 07:09:50 51°13.599 2°56.109 4.1 123 13.7 101650 94
2005-06-02 07:09:55 51°13.599 2°56.109 3.6 132 13.7 101650 93
2005-06-02 07:10:01 51°13.599 2°56.109 2.4 165 13.7 101650 93
2005-06-02 07:10:05 51°13.599 2°56.109 2.1 165 13.7 101650 93
2005-06-02 07:10:11 51°13.599 2°56.108 3.4 150 13.7 101650 93
2005-06-02 07:10:15 51°13.599 2°56.109 4.1 163 13.7 101640 94
2005-06-02 07:10:21 51°13.599 2°56.109 4.1 143 13.7 101640 94
2005-06-02 07:10:26 51°13.599 2°56.108 3.8 146 13.7 101640 94
2005-06-02 07:10:31 51°13.599 2°56.109 3.6 155 13.7 101640 94
2005-06-02 07:10:35 51°13.599 2°56.109 3.1 148 13.7 101650 93
2005-06-02 07:10:41 51°13.599 2°56.109 3.8 168 13.7 101650 93
2005-06-02 07:10:46 51°13.599 2°56.109 2.9 146 13.7 101640 93
2005-06-02 07:10:51 51°13.599 2°56.109 3.7 163 13.7 101640 93
2005-06-02 07:10:55 51°13.599 2°56.109 2.9 135 13.7 101650 93
2005-06-02 07:11:00 51°13.599 2°56.109 2.9 166 13.7 101650 93
2005-06-02 07:11:06 51°13.599 2°56.109 4.4 174 13.7 101640 93
2005-06-02 07:11:11 51°13.599 2°56.109 4.2 132 13.7 101640 93
2005-06-02 07:11:15 51°13.599 2°56.109 3.8 124 13.7 101650 93
2005-06-02 07:11:21 51°13.599 2°56.109 3.7 132 13.7 101650 93
2005-06-02 07:11:26 51°13.599 2°56.108 4.3 113 13.7 101650 93
2005-06-02 07:11:31 51°13.599 2°56.108 3.6 126 13.7 101650 93
2005-06-02 07:11:36 51°13.599 2°56.108 3.1 133 13.7 101650 93
2005-06-02 07:11:41 51°13.599 2°56.108 3.6 138 13.7 101650 93
2005-06-02 07:11:46 51°13.599 2°56.109 3.4 140 13.7 101650 93
2005-06-02 07:11:51 51°13.599 2°56.109 2.7 133 13.7 101650 93
2005-06-02 07:11:55 51°13.599 2°56.109 2.3 140 13.7 101650 93
2005-06-02 07:12:01 51°13.599 2°56.109 3 136 13.7 101650 93
2005-06-02 07:12:06 51°13.599 2°56.109 3.1 131 13.7 101640 93
2005-06-02 07:12:11 51°13.599 2°56.109 3.6 139 13.7 101640 93
2005-06-02 07:12:15 51°13.599 2°56.109 3.4 137 13.7 101650 93
2005-06-02 07:12:21 51°13.599 2°56.109 3.1 136 13.7 101650 93
2005-06-02 07:12:26 51°13.599 2°56.109 3 135 13.7 101650 93
2005-06-02 07:12:31 51°13.599 2°56.109 3.6 129 13.7 101650 93
2005-06-02 07:12:36 51°13.599 2°56.109 4.4 137 13.7 101640 93
2005-06-02 07:12:41 51°13.599 2°56.109 3.4 154 13.7 101640 93
2005-06-02 07:12:46 51°13.599 2°56.108 3.7 131 13.6 101650 93
2005-06-02 07:12:51 51°13.599 2°56.108 2.1 138 13.6 101650 93
2005-06-02 07:12:56 51°13.599 2°56.108 2.4 135 13.7 101650 93
2005-06-02 07:13:01 51°13.599 2°56.108 2.7 157 13.7 101650 93
2005-06-02 07:13:06 51°13.599 2°56.108 2.8 130 13.7 101650 93
2005-06-02 07:13:11 51°13.599 2°56.108 2.7 155 13.7 101650 93
2005-06-02 07:13:16 51°13.599 2°56.108 2.5 150 13.6 101650 93
2005-06-02 07:13:21 51°13.599 2°56.108 3 158 13.6 101650 93
2005-06-02 07:13:26 51°13.599 2°56.108 2.8 155 13.6 101650 93
2005-06-02 07:13:31 51°13.599 2°56.108 2.6 146 13.6 101650 93
2005-06-02 07:13:36 51°13.599 2°56.108 2.9 149 13.7 101650 93
2005-06-02 07:13:41 51°13.599 2°56.108 2.8 160 13.7 101650 93
2005-06-02 07:13:46 51°13.599 2°56.108 3.6 154 13.7 101650 93
2005-06-02 07:13:51 51°13.599 2°56.108 3.7 154 13.7 101650 93
2005-06-02 07:13:56 51°13.599 2°56.108 3.9 161 13.7 101650 93
2005-06-02 07:14:01 51°13.599 2°56.108 3.3 142 13.7 101650 93
2005-06-02 07:14:06 51°13.599 2°56.108 3 141 13.7 101650 93
2005-06-02 07:14:11 51°13.598 2°56.108 5.2 142 13.7 101650 93
2005-06-02 07:14:16 51°13.598 2°56.108 4.8 149 13.7 101650 93
2005-06-02 07:14:21 51°13.599 2°56.108 4.1 148 13.7 101650 93
2005-06-02 07:14:26 51°13.599 2°56.108 3.8 150 13.7 101650 93
2005-06-02 07:14:31 51°13.599 2°56.108 4.2 165 13.7 101650 93
2005-06-02 07:14:36 51°13.599 2°56.108 4.1 157 13.6 101650 93
2005-06-02 07:14:40 51°13.599 2°56.108 4 152 13.6 101650 93
2005-06-02 07:14:45 51°13.599 2°56.108 4.8 160 13.7 101650 93
2005-06-02 07:14:50 51°13.599 2°56.107 2.9 151 13.7 101650 93
2005-06-02 07:14:56 51°13.599 2°56.107 2.8 153 13.6 101650 93
2005-06-02 07:15:00 51°13.599 2°56.107 5.5 152 13.6 101650 93
2005-06-02 07:15:06 51°13.599 2°56.107 5.2 154 13.6 101650 93
2005-06-02 07:15:11 51°13.599 2°56.107 4.5 135 13.6 101650 93
2005-06-02 07:15:16 51°13.599 2°56.107 4.1 152 13.7 101650 93
2005-06-02 07:15:20 51°13.599 2°56.107 3.4 141 13.7 101650 93
2005-06-02 07:15:25 51°13.599 2°56.107 3.6 153 13.7 101650 93
2005-06-02 07:15:31 51°13.599 2°56.107 4.4 159 13.7 101650 93
2005-06-02 07:15:36 51°13.599 2°56.107 3.9 155 13.7 101650 93
2005-06-02 07:15:40 51°13.599 2°56.107 3.9 149 13.7 101650 93
2005-06-02 07:15:46 51°13.599 2°56.108 3.6 135 13.7 101660 93
2005-06-02 07:15:50 51°13.599 2°56.108 2.9 140 13.7 101660 93
2005-06-02 07:15:55 51°13.599 2°56.108 3 132 13.7 101650 93
2005-06-02 07:16:00 51°13.599 2°56.108 3.4 118 13.7 101650 93
2005-06-02 07:16:05 51°13.599 2°56.108 2.8 113 13.7 101650 93
2005-06-02 07:16:11 51°13.599 2°56.108 2.1 134 13.7 101650 93
2005-06-02 07:16:16 51°13.599 2°56.108 2.9 158 13.6 101660 93
2005-06-02 07:16:20 51°13.599 2°56.108 3.4 156 13.6 101660 93
2005-06-02 07:16:25 51°13.599 2°56.108 4.3 141 13.7 101660 93
2005-06-02 07:16:31 51°13.599 2°56.107 3.1 154 13.7 101660 93
2005-06-02 07:16:36 51°13.599 2°56.107 3.6 164 13.7 101660 93
2005-06-02 07:16:40 51°13.599 2°56.108 3.1 160 13.7 101660 93
2005-06-02 07:16:46 51°13.599 2°56.108 3.8 153 13.7 101660 93
2005-06-02 07:16:51 51°13.599 2°56.108 3.6 153 13.7 101660 93
2005-06-02 07:16:56 51°13.599 2°56.107 3 151 13.7 101650 93
2005-06-02 07:17:01 51°13.599 2°56.108 3.6 166 13.7 101650 93
2005-06-02 07:17:06 51°13.599 2°56.108 3.2 159 13.7 101660 93
2005-06-02 07:17:11 51°13.599 2°56.108 3.5 151 13.7 101660 93
2005-06-02 07:17:16 51°13.599 2°56.108 3.4 157 13.7 101660 93
2005-06-02 07:17:21 51°13.599 2°56.107 3.5 148 13.7 101660 93
2005-06-02 07:17:26 51°13.599 2°56.107 3 142 13.7 101660 93
2005-06-02 07:17:31 51°13.599 2°56.107 3.7 153 13.7 101660 93
2005-06-02 07:17:36 51°13.599 2°56.107 3.6 148 13.7 101660 93
2005-06-02 07:17:40 51°13.599 2°56.107 4 160 13.7 101660 93
2005-06-02 07:17:46 51°13.599 2°56.107 4.5 155 13.7 101660 93
2005-06-02 07:17:51 51°13.599 2°56.107 4.3 150 13.7 101660 93
2005-06-02 07:17:56 51°13.599 2°56.107 4.1 145 13.7 101660 93
2005-06-02 07:18:00 51°13.599 2°56.107 4.4 145 13.7 101660 93
2005-06-02 07:18:06 51°13.599 2°56.107 5.5 150 13.7 101660 93
2005-06-02 07:18:11 51°13.599 2°56.107 4.9 138 13.7 101660 93
2005-06-02 07:18:16 51°13.599 2°56.107 5.4 131 13.7 101660 93
2005-06-02 07:18:20 51°13.599 2°56.107 4.9 120 13.7 101660 93
2005-06-02 07:18:25 51°13.599 2°56.107 5 127 13.7 101660 93
2005-06-02 07:18:31 51°13.599 2°56.107 3.9 145 13.7 101660 93
2005-06-02 07:18:36 51°13.599 2°56.107 6 131 13.7 101660 93
2005-06-02 07:18:40 51°13.599 2°56.107 6.3 43 13.7 101660 93
2005-06-02 07:18:45 51°13.599 2°56.107 4.9 136 13.7 101660 93
2005-06-02 07:18:51 51°13.599 2°56.107 4 106 13.7 101660 93
2005-06-02 07:18:56 51°13.599 2°56.107 4.8 120 13.7 101660 93
2005-06-02 07:19:00 51°13.599 2°56.107 4.3 115 13.7 101660 93
2005-06-02 07:19:05 51°13.599 2°56.107 3.6 117 13.7 101660 93
2005-06-02 07:19:11 51°13.599 2°56.107 3.1 116 13.7 101660 93
2005-06-02 07:19:15 51°13.599 2°56.107 4.2 123 13.7 101660 93
2005-06-02 07:19:20 51°13.599 2°56.107 4 151 13.7 101660 93
2005-06-02 07:19:25 51°13.599 2°56.107 4.1 151 13.7 101660 93
2005-06-02 07:19:31 51°13.599 2°56.108 4.5 142 13.7 101660 93
2005-06-02 07:19:36 51°13.599 2°56.108 4.8 142 13.7 101660 93
2005-06-02 07:19:40 51°13.599 2°56.108 4.3 143 13.7 101660 93
2005-06-02 07:19:46 51°13.599 2°56.108 4.2 150 13.7 101660 93
2005-06-02 07:19:51 51°13.599 2°56.108 4.3 144 13.7 101660 93
2005-06-02 07:19:56 51°13.599 2°56.108 4.3 122 13.7 101660 93
2005-06-02 07:20:00 51°13.599 2°56.108 5.5 124 13.7 101660 93
2005-06-02 07:20:06 51°13.599 2°56.108 5.8 119 13.7 101660 93
2005-06-02 07:20:11 51°13.599 2°56.108 4.1 131 13.7 101660 93
2005-06-02 07:20:16 51°13.599 2°56.108 4.7 122 13.7 101660 93
2005-06-02 07:20:20 51°13.599 2°56.108 4.5 134 13.7 101660 93
2005-06-02 07:20:26 51°13.599 2°56.108 4.9 139 13.7 101660 93
2005-06-02 07:20:31 51°13.599 2°56.108 4.7 152 13.7 101660 93
2005-06-02 07:20:36 51°13.599 2°56.108 3.5 145 13.7 101660 93
2005-06-02 07:20:40 51°13.599 2°56.108 3.9 155 13.7 101660 93
2005-06-02 07:20:45 51°13.599 2°56.108 4.3 150 13.7 101660 93
2005-06-02 07:20:51 51°13.599 2°56.108 3.4 142 13.7 101660 93
2005-06-02 07:20:56 51°13.599 2°56.108 3.1 142 13.7 101660 93
2005-06-02 07:21:00 51°13.599 2°56.108 3.4 104 13.7 101660 93
2005-06-02 07:21:05 51°13.599 2°56.108 4.2 115 13.7 101660 93
2005-06-02 07:21:11 51°13.599 2°56.108 3.3 150 13.7 101660 93
2005-06-02 07:21:16 51°13.599 2°56.108 4.1 146 13.7 101660 93
2005-06-02 07:21:20 51°13.599 2°56.108 3.9 119 13.7 101660 93
2005-06-02 07:21:26 51°13.599 2°56.108 4.6 128 13.7 101660 93
2005-06-02 07:21:31 51°13.599 2°56.108 3.3 143 13.7 101660 93
2005-06-02 07:21:35 51°13.599 2°56.108 3.2 159 13.7 101660 93
2005-06-02 07:21:40 51°13.599 2°56.108 3 138 13.7 101660 93
2005-06-02 07:21:46 51°13.599 2°56.109 2.6 128 13.7 101660 93
2005-06-02 07:21:51 51°13.599 2°56.108 4.2 130 13.7 101660 93
2005-06-02 07:21:55 51°13.599 2°56.108 4.3 160 13.7 101660 93
2005-06-02 07:22:00 51°13.599 2°56.109 3.5 139 13.7 101660 93
2005-06-02 07:22:06 51°13.599 2°56.109 2.9 120 13.7 101660 93
2005-06-02 07:22:11 51°13.599 2°56.108 2.9 156 13.7 101660 93
2005-06-02 07:22:15 51°13.599 2°56.108 3.8 144 13.7 101660 93
2005-06-02 07:22:20 51°13.599 2°56.108 5.3 136 13.7 101660 93
2005-06-02 07:22:25 51°13.599 2°56.109 4.5 158 13.7 101660 93
2005-06-02 07:22:31 51°13.599 2°56.108 5.2 132 13.7 101660 93
2005-06-02 07:22:35 51°13.599 2°56.108 4.1 106 13.7 101660 93
2005-06-02 07:22:40 51°13.599 2°56.108 3.6 122 13.7 101660 93
2005-06-02 07:22:45 51°13.599 2°56.108 5.2 130 13.7 101660 93
2005-06-02 07:22:51 51°13.599 2°56.108 4.9 118 13.7 101660 93
2005-06-02 07:22:55 51°13.599 2°56.108 5.1 115 13.7 101660 93
2005-06-02 07:23:00 51°13.599 2°56.108 3.1 109 13.7 101660 93
2005-06-02 07:23:05 51°13.599 2°56.108 3.2 129 13.7 101660 92
2005-06-02 07:23:11 51°13.599 2°56.108 3.6 146 13.7 101660 92
2005-06-02 07:23:16 51°13.599 2°56.108 3.8 146 13.7 101660 92
2005-06-02 07:23:20 51°13.599 2°56.108 3.1 160 13.7 101660 92
2005-06-02 07:23:25 51°13.599 2°56.108 3.3 147 13.7 101660 92
2005-06-02 07:23:30 51°13.599 2°56.108 3.4 145 13.7 101660 92
2005-06-02 07:23:36 51°13.599 2°56.108 3.8 148 13.7 101660 92
2005-06-02 07:23:40 51°13.599 2°56.108 2.9 144 13.7 101660 92
2005-06-02 07:23:45 51°13.599 2°56.108 3 145 13.7 101660 92
2005-06-02 07:23:51 51°13.599 2°56.108 2.9 141 13.7 101660 92
2005-06-02 07:23:55 51°13.599 2°56.108 3.3 130 13.7 101660 92
2005-06-02 07:24:00 51°13.599 2°56.108 3 149 13.7 101660 92
2005-06-02 07:24:05 51°13.599 2°56.108 3.4 166 13.7 101660 92
2005-06-02 07:24:11 51°13.599 2°56.108 3.3 129 13.7 101660 92
2005-06-02 07:24:15 51°13.599 2°56.108 4.3 135 13.7 101660 92
2005-06-02 07:24:20 51°13.599 2°56.108 3.4 157 13.7 101660 92
2005-06-02 07:24:25 51°13.599 2°56.108 3.6 156 13.7 101660 93
2005-06-02 07:24:31 51°13.599 2°56.108 3.3 159 13.7 101660 93
2005-06-02 07:24:35 51°13.599 2°56.108 3 156 13.7 101660 92
2005-06-02 07:24:40 51°13.599 2°56.108 3 142 13.7 101660 92
2005-06-02 07:24:45 51°13.599 2°56.108 2.9 136 13.7 101660 92
2005-06-02 07:24:51 51°13.599 2°56.109 2.9 147 13.7 101660 92
2005-06-02 07:24:55 51°13.599 2°56.109 3.2 144 13.7 101660 93
2005-06-02 07:25:00 51°13.599 2°56.109 5.5 130 13.7 101660 93
2005-06-02 07:25:05 51°13.599 2°56.109 5 136 13.7 101650 93
2005-06-02 07:25:11 51°13.599 2°56.109 5.4 114 13.7 101650 93
2005-06-02 07:25:15 51°13.599 2°56.109 4.1 145 13.7 101660 93
2005-06-02 07:25:20 51°13.599 2°56.109 5 124 13.7 101660 93
2005-06-02 07:25:25 51°13.599 2°56.109 5.1 122 13.8 101660 93
2005-06-02 07:25:31 51°13.599 2°56.109 3.5 110 13.8 101660 93
2005-06-02 07:25:35 51°13.599 2°56.109 3.5 136 13.7 101660 93
2005-06-02 07:25:40 51°13.599 2°56.109 3.9 129 13.7 101660 93
2005-06-02 07:25:45 51°13.599 2°56.109 3.5 135 13.7 101660 92
2005-06-02 07:25:50 51°13.599 2°56.109 3.5 135 13.7 101660 92
2005-06-02 07:25:56 51°13.599 2°56.109 4.4 155 13.7 101650 92
2005-06-02 07:26:00 51°13.599 2°56.109 4.8 130 13.7 101650 92
2005-06-02 07:26:05 51°13.599 2°56.109 4.9 147 13.7 101650 92
2005-06-02 07:26:11 51°13.599 2°56.109 3.3 137 13.7 101650 92
2005-06-02 07:26:15 51°13.599 2°56.109 2.7 147 13.7 101650 92
2005-06-02 07:26:20 51°13.599 2°56.109 3.3 124 13.7 101650 92
2005-06-02 07:26:25 51°13.599 2°56.109 3.1 124 13.7 101660 92
2005-06-02 07:26:31 51°13.599 2°56.109 3.6 146 13.7 101660 92
2005-06-02 07:26:35 51°13.599 2°56.109 3 149 13.7 101660 92
2005-06-02 07:26:40 51°13.599 2°56.109 5.5 159 13.7 101660 92
2005-06-02 07:26:46 51°13.599 2°56.109 6.1 159 13.7 101660 92
2005-06-02 07:26:51 51°13.598 2°56.109 5.9 154 13.7 101660 92
2005-06-02 07:26:55 51°13.598 2°56.109 4.9 143 13.7 101660 92
2005-06-02 07:27:00 51°13.598 2°56.109 4.2 45 13.7 101660 92
2005-06-02 07:27:06 51°13.599 2°56.109 3.3 176 13.7 101660 92
2005-06-02 07:27:11 51°13.598 2°56.109 4.8 166 13.7 101660 92
2005-06-02 07:27:15 51°13.598 2°56.109 4.8 159 13.7 101660 92
2005-06-02 07:27:20 51°13.598 2°56.109 4.1 145 13.7 101660 92
2005-06-02 07:27:25 51°13.598 2°56.109 3.2 149 13.7 101650 92
2005-06-02 07:27:31 51°13.598 2°56.109 5.4 156 13.7 101650 92
2005-06-02 07:27:35 51°13.598 2°56.109 4.2 160 13.7 101660 92
2005-06-02 07:27:40 51°13.598 2°56.109 3.3 143 13.7 101660 92
2005-06-02 07:27:45 51°13.599 2°56.109 5.8 141 13.7 101660 92
2005-06-02 07:27:51 51°13.599 2°56.109 4.9 135 13.7 101660 92
2005-06-02 07:27:56 51°13.599 2°56.108 5 125 13.7 101650 92
2005-06-02 07:28:00 51°13.598 2°56.108 5.3 131 13.7 101650 92
2005-06-02 07:28:05 51°13.599 2°56.108 4.8 138 13.6 101660 92
2005-06-02 07:28:11 51°13.599 2°56.108 5.1 130 13.6 101660 92
2005-06-02 07:28:16 51°13.599 2°56.108 5.7 130 13.6 101660 92
2005-06-02 07:28:20 51°13.598 2°56.108 5.4 141 13.6 101660 92
2005-06-02 07:28:25 51°13.599 2°56.108 5.3 150 13.6 101660 92
2005-06-02 07:28:31 51°13.598 2°56.108 6.2 121 13.6 101660 92
2005-06-02 07:28:36 51°13.598 2°56.108 5 44 13.7 101660 92
2005-06-02 07:28:40 51°13.599 2°56.108 4.9 122 13.7 101660 92
2005-06-02 07:28:45 51°13.598 2°56.108 5.1 97 13.7 101660 92
2005-06-02 07:28:51 51°13.598 2°56.108 5.1 151 13.7 101660 92
2005-06-02 07:28:55 51°13.599 2°56.108 5.1 144 13.6 101660 92
2005-06-02 07:29:00 51°13.598 2°56.108 5.8 133 13.6 101660 92
2005-06-02 07:29:06 51°13.598 2°56.108 5.4 129 13.6 101660 92
2005-06-02 07:29:11 51°13.599 2°56.108 6.2 128 13.6 101660 92
2005-06-02 07:29:15 51°13.599 2°56.108 6.1 133 13.6 101650 92
2005-06-02 07:29:20 51°13.599 2°56.108 5.4 148 13.6 101650 92
2005-06-02 07:29:25 51°13.599 2°56.108 5.6 162 13.6 101650 92
2005-06-02 07:29:31 51°13.598 2°56.108 6.3 132 13.6 101650 92
2005-06-02 07:29:35 51°13.598 2°56.108 6.9 143 13.6 101660 92
2005-06-02 07:29:40 51°13.598 2°56.108 6 158 13.6 101660 92
2005-06-02 07:29:45 51°13.598 2°56.108 6.9 151 13.6 101660 92
2005-06-02 07:29:51 51°13.599 2°56.108 6.2 122 13.6 101660 92
2005-06-02 07:29:55 51°13.598 2°56.108 6.4 128 13.6 101660 92
2005-06-02 07:30:00 51°13.598 2°56.108 3.9 115 13.6 101660 92
2005-06-02 07:30:05 51°13.598 2°56.108 4.6 101 13.6 101650 92
2005-06-02 07:30:11 51°13.598 2°56.108 5.4 134 13.6 101650 92
2005-06-02 07:30:16 51°13.599 2°56.108 5.5 138 13.6 101650 92
2005-06-02 07:30:20 51°13.599 2°56.108 4 138 13.6 101650 92
2005-06-02 07:30:25 51°13.598 2°56.108 3.5 158 13.6 101660 92
2005-06-02 07:30:31 51°13.598 2°56.108 7.2 145 13.6 101660 92
2005-06-02 07:30:36 51°13.598 2°56.108 5.6 157 13.6 101650 92
2005-06-02 07:30:40 51°13.599 2°56.108 6 145 13.6 101650 92
2005-06-02 07:30:45 51°13.598 2°56.108 7.3 154 13.6 101660 92
2005-06-02 07:30:51 51°13.598 2°56.108 6.2 149 13.6 101660 92
2005-06-02 07:30:56 51°13.598 2°56.108 7 156 13.5 101660 92
2005-06-02 07:31:00 51°13.598 2°56.108 5.6 141 13.5 101660 92
2005-06-02 07:31:05 51°13.598 2°56.108 5.9 142 13.5 101650 92
2005-06-02 07:31:11 51°13.598 2°56.108 4.4 141 13.5 101650 92
2005-06-02 07:31:15 51°13.598 2°56.108 4.6 137 13.5 101660 92
2005-06-02 07:31:21 51°13.598 2°56.108 5.9 162 13.5 101660 92
2005-06-02 07:31:25 51°13.598 2°56.108 4 157 13.5 101650 92
2005-06-02 07:31:31 51°13.598 2°56.108 6.2 148 13.5 101650 92
2005-06-02 07:31:36 51°13.598 2°56.108 5 156 13.5 101660 92
2005-06-02 07:31:40 51°13.598 2°56.108 6.4 154 13.5 101660 92
2005-06-02 07:31:45 51°13.598 2°56.108 7.2 152 13.5 101660 92
2005-06-02 07:31:51 51°13.598 2°56.108 5.5 137 13.5 101660 92
2005-06-02 07:31:56 51°13.598 2°56.108 4.8 125 13.5 101660 92
2005-06-02 07:32:01 51°13.598 2°56.108 5.1 157 13.5 101660 92
2005-06-02 07:32:06 51°13.598 2°56.108 4.7 149 13.5 101650 92
2005-06-02 07:32:11 51°13.598 2°56.108 5 155 13.5 101650 92
2005-06-02 07:32:16 51°13.598 2°56.108 5.1 151 13.5 101660 92
2005-06-02 07:32:21 51°13.598 2°56.108 4.8 164 13.5 101660 92
2005-06-02 07:32:25 51°13.598 2°56.107 5 185 13.4 101660 92
2005-06-02 07:32:30 51°13.598 2°56.107 4.4 140 13.4 101660 92
2005-06-02 07:32:36 51°13.598 2°56.107 4.7 153 13.4 101660 92
2005-06-02 07:32:41 51°13.598 2°56.107 5.2 225 13.4 101660 92
2005-06-02 07:32:45 51°13.598 2°56.107 4.9 145 13.4 101660 92
2005-06-02 07:32:51 51°13.598 2°56.107 7.2 153 13.4 101660 92
2005-06-02 07:32:56 51°13.598 2°56.107 7.7 157 13.4 101660 92
2005-06-02 07:33:01 51°13.598 2°56.107 6.2 150 13.4 101660 92
2005-06-02 07:33:05 51°13.598 2°56.107 6.8 156 13.4 101660 92
2005-06-02 07:33:10 51°13.598 2°56.107 4.6 135 13.4 101660 92
2005-06-02 07:33:16 51°13.598 2°56.107 3.6 128 13.4 101660 92
2005-06-02 07:33:21 51°13.598 2°56.107 5.6 172 13.4 101660 92
2005-06-02 07:33:25 51°13.598 2°56.107 4.9 157 13.4 101660 92
2005-06-02 07:33:30 51°13.598 2°56.107 5 154 13.4 101660 92
2005-06-02 07:33:35 51°13.598 2°56.108 5.5 149 13.4 101650 92
2005-06-02 07:33:41 51°13.598 2°56.108 5.7 148 13.4 101650 92
2005-06-02 07:33:45 51°13.598 2°56.108 5.6 146 13.4 101660 93
2005-06-02 07:33:51 51°13.598 2°56.108 5.9 158 13.4 101660 93
2005-06-02 07:33:55 51°13.598 2°56.108 6.4 169 13.4 101660 92
2005-06-02 07:34:00 51°13.598 2°56.108 6.4 151 13.4 101660 92
2005-06-02 07:34:05 51°13.598 2°56.108 6.3 162 13.4 101660 92
2005-06-02 07:34:11 51°13.598 2°56.108 4.1 170 13.4 101660 92
2005-06-02 07:34:15 51°13.598 2°56.108 5.5 161 13.4 101660 93
2005-06-02 07:34:20 51°13.598 2°56.108 6.2 152 13.4 101660 93
2005-06-02 07:34:25 51°13.598 2°56.108 5.3 155 13.4 101660 92
2005-06-02 07:34:31 51°13.598 2°56.108 4.8 147 13.4 101660 92
2005-06-02 07:34:35 51°13.598 2°56.108 4 139 13.4 101660 93
2005-06-02 07:34:41 51°13.599 2°56.108 3.9 126 13.4 101660 93
2005-06-02 07:34:45 51°13.598 2°56.108 4.6 132 13.4 101660 93
2005-06-02 07:34:50 51°13.598 2°56.108 3.7 143 13.4 101660 93
2005-06-02 07:34:56 51°13.598 2°56.108 3.7 140 13.4 101660 93
2005-06-02 07:35:01 51°13.599 2°56.108 3.1 135 13.4 101660 93
2005-06-02 07:35:05 51°13.599 2°56.108 3.2 152 13.4 101660 93
2005-06-02 07:35:10 51°13.599 2°56.108 4.9 161 13.4 101660 93
2005-06-02 07:35:15 51°13.598 2°56.107 4.7 159 13.4 101660 93
2005-06-02 07:35:20 51°13.599 2°56.107 5.8 167 13.4 101660 93
2005-06-02 07:35:25 51°13.598 2°56.107 5.7 135 13.5 101660 93
2005-06-02 07:35:30 51°13.598 2°56.107 4.9 149 13.5 101660 93
2005-06-02 07:35:35 51°13.598 2°56.107 5.4 159 13.4 101660 93
2005-06-02 07:35:40 51°13.598 2°56.107 4.7 148 13.4 101660 93
2005-06-02 07:35:45 51°13.598 2°56.107 4.5 171 13.4 101660 93
2005-06-02 07:35:50 51°13.598 2°56.107 5.3 145 13.4 101660 93
2005-06-02 07:35:55 51°13.598 2°56.107 4.5 150 13.4 101660 93
2005-06-02 07:36:00 51°13.598 2°56.107 4.3 139 13.4 101660 93
2005-06-02 07:36:05 51°13.598 2°56.107 4.7 154 13.4 101660 93
2005-06-02 07:36:10 51°13.598 2°56.107 6.6 164 13.4 101660 93
2005-06-02 07:36:15 51°13.598 2°56.107 5.9 158 13.4 101660 93
2005-06-02 07:36:20 51°13.598 2°56.107 4.5 227 13.4 101660 93
2005-06-02 07:36:25 51°13.598 2°56.107 5.7 129 13.4 101660 93
2005-06-02 07:36:31 51°13.598 2°56.107 4.9 140 13.4 101660 93
2005-06-02 07:36:35 51°13.598 2°56.107 5.1 165 13.4 101660 93
2005-06-02 07:36:40 51°13.598 2°56.107 4.8 142 13.4 101660 93
2005-06-02 07:36:45 51°13.598 2°56.107 6.1 155 13.4 101660 93
2005-06-02 07:36:51 51°13.598 2°56.107 5.8 119 13.4 101660 93
2005-06-02 07:36:55 51°13.598 2°56.108 6.2 159 13.4 101660 93
2005-06-02 07:37:00 51°13.598 2°56.108 4.7 225 13.4 101660 93
2005-06-02 07:37:05 51°13.598 2°56.107 5.7 130 13.4 101660 93
2005-06-02 07:37:11 51°13.598 2°56.107 5.6 170 13.4 101660 93
2005-06-02 07:37:16 51°13.598 2°56.107 5.2 157 13.4 101660 93
2005-06-02 07:37:21 51°13.598 2°56.107 5.8 160 13.4 101660 93
2005-06-02 07:37:25 51°13.598 2°56.108 5.7 154 13.4 101660 93
2005-06-02 07:37:31 51°13.598 2°56.108 4.4 157 13.4 101660 93
2005-06-02 07:37:36 51°13.598 2°56.107 4.3 152 13.4 101660 93
2005-06-02 07:37:41 51°13.598 2°56.107 4.8 142 13.4 101660 93
2005-06-02 07:37:45 51°13.598 2°56.107 3.8 139 13.4 101670 93
2005-06-02 07:37:51 51°13.598 2°56.108 3.8 145 13.4 101670 93
2005-06-02 07:37:56 51°13.598 2°56.107 5 153 13.4 101660 93
2005-06-02 07:38:01 51°13.598 2°56.108 4.7 143 13.4 101660 93
2005-06-02 07:38:05 51°13.599 2°56.108 4 147 13.4 101660 93
2005-06-02 07:38:10 51°13.598 2°56.108 4 151 13.4 101660 93
2005-06-02 07:38:16 51°13.598 2°56.107 4.3 149 13.4 101660 93
2005-06-02 07:38:21 51°13.598 2°56.107 4.9 165 13.4 101660 93
2005-06-02 07:38:25 51°13.598 2°56.108 5.1 157 13.4 101660 93
2005-06-02 07:38:31 51°13.598 2°56.107 6.8 161 13.4 101660 93
2005-06-02 07:38:36 51°13.598 2°56.108 6.6 148 13.4 101660 93
2005-06-02 07:38:40 51°13.598 2°56.108 6.7 153 13.4 101660 93
2005-06-02 07:38:45 51°13.599 2°56.108 6 152 13.4 101660 93
2005-06-02 07:38:51 51°13.599 2°56.108 5.2 153 13.4 101660 93
2005-06-02 07:38:56 51°13.599 2°56.108 4.2 142 13.4 101660 93
2005-06-02 07:39:00 51°13.599 2°56.108 4.2 152 13.4 101660 93
2005-06-02 07:39:05 51°13.599 2°56.108 3.9 141 13.4 101660 93
2005-06-02 07:39:11 51°13.599 2°56.108 3.8 152 13.4 101660 93
2005-06-02 07:39:16 51°13.599 2°56.108 4.5 136 13.4 101660 93
2005-06-02 07:39:20 51°13.599 2°56.108 4.4 160 13.4 101660 93
2005-06-02 07:39:25 51°13.599 2°56.108 3.9 156 13.4 101660 93
2005-06-02 07:39:30 51°13.599 2°56.108 3 145 13.4 101660 93
2005-06-02 07:39:35 51°13.599 2°56.108 4 111 13.4 101660 93
2005-06-02 07:39:41 51°13.6 2°56.108 2.9 130 13.4 101660 93
2005-06-02 07:39:45 51°13.6 2°56.109 2.5 141 13.4 101660 93
2005-06-02 07:39:50 51°13.601 2°56.109 3 131 13.4 101660 93
2005-06-02 07:39:56 51°13.6 2°56.109 3.5 138 13.4 101660 93
2005-06-02 07:40:00 51°13.6 2°56.108 4 133 13.4 101660 93
2005-06-02 07:40:04 51°13.599 2°56.107 4.5 141 13.4 101660 93
2005-06-02 07:40:09 51°13.599 2°56.107 4.4 151 13.4 101660 93
2005-06-02 07:40:13 51°13.599 2°56.107 5.4 148 13.4 101660 93
2005-06-02 07:40:19 51°13.599 2°56.107 4.8 150 13.4 101660 93
2005-06-02 07:40:24 51°13.598 2°56.107 4.6 154 13.4 101660 93
2005-06-02 07:40:28 51°13.598 2°56.107 4.5 145 13.4 101660 93
2005-06-02 07:40:34 51°13.598 2°56.107 5.1 128 13.4 101660 93
2005-06-02 07:40:39 51°13.598 2°56.107 5.9 139 13.4 101660 93
2005-06-02 07:40:44 51°13.598 2°56.107 3.9 142 13.4 101660 93
2005-06-02 07:40:48 51°13.598 2°56.107 6.4 147 13.4 101660 93
2005-06-02 07:40:53 51°13.598 2°56.106 6.5 158 13.4 101670 93
2005-06-02 07:40:59 51°13.597 2°56.106 5.6 150 13.4 101670 93
2005-06-02 07:41:04 51°13.597 2°56.106 3.9 155 13.4 101670 93
2005-06-02 07:41:09 51°13.597 2°56.106 6.8 119 13.4 101670 93
2005-06-02 07:41:14 51°13.597 2°56.106 5.8 132 13.4 101660 93
2005-06-02 07:41:19 51°13.597 2°56.106 5 133 13.4 101660 93
2005-06-02 07:41:24 51°13.597 2°56.106 3.6 134 13.4 101670 93
2005-06-02 07:41:29 51°13.597 2°56.106 5.3 160 13.4 101670 93
2005-06-02 07:41:34 51°13.597 2°56.106 5.7 163 13.4 101660 93
2005-06-02 07:41:39 51°13.597 2°56.106 4.8 134 13.4 101660 93
2005-06-02 07:41:44 51°13.597 2°56.106 5.2 40 13.4 101670 93
2005-06-02 07:41:49 51°13.597 2°56.106 4 156 13.4 101670 93
2005-06-02 07:41:54 51°13.597 2°56.106 4.1 135 13.4 101670 93
2005-06-02 07:41:59 51°13.597 2°56.106 3.6 135 13.4 101670 93
2005-06-02 07:42:04 51°13.597 2°56.106 4 132 13.4 101660 93
2005-06-02 07:42:09 51°13.597 2°56.106 2.7 156 13.4 101660 93
2005-06-02 07:42:14 51°13.597 2°56.106 4.7 136 13.4 101670 93
2005-06-02 07:42:20 51°13.597 2°56.106 5.4 116 13.4 101670 93
2005-06-02 07:42:24 51°13.597 2°56.106 4.9 107 13.4 101660 93
2005-06-02 07:42:29 51°13.597 2°56.106 4.2 138 13.4 101660 93
2005-06-02 07:42:33 51°13.597 2°56.106 3.5 230 13.4 101670 93
2005-06-02 07:42:39 51°13.597 2°56.106 3.7 130 13.4 101670 93
2005-06-02 07:42:44 51°13.597 2°56.106 3.8 124 13.4 101660 93
2005-06-02 07:42:49 51°13.597 2°56.106 3 172 13.4 101660 93
2005-06-02 07:42:54 51°13.597 2°56.106 3.1 156 13.4 101670 93
2005-06-02 07:42:59 51°13.596 2°56.106 3.7 158 13.4 101670 93
2005-06-02 07:43:04 51°13.596 2°56.106 3.5 156 13.4 101670 93
2005-06-02 07:43:09 51°13.596 2°56.106 4.6 145 13.4 101670 93
2005-06-02 07:43:13 51°13.596 2°56.106 4 151 13.4 101670 93
2005-06-02 07:43:19 51°13.596 2°56.106 4.1 172 13.4 101670 93
2005-06-02 07:43:24 51°13.596 2°56.106 4 147 13.4 101670 93
2005-06-02 07:43:29 51°13.596 2°56.106 4.8 158 13.4 101670 93
2005-06-02 07:43:33 51°13.596 2°56.106 5.5 161 13.4 101670 93
2005-06-02 07:43:39 51°13.596 2°56.106 6.3 141 13.4 101670 93
2005-06-02 07:43:44 51°13.596 2°56.106 6.3 147 13.4 101670 93
2005-06-02 07:43:49 51°13.596 2°56.106 4.6 150 13.4 101670 93
2005-06-02 07:43:54 51°13.596 2°56.106 4.1 226 13.4 101670 93
2005-06-02 07:43:59 51°13.596 2°56.106 4.7 159 13.4 101670 93
2005-06-02 07:44:04 51°13.596 2°56.106 5.9 172 13.4 101670 93
2005-06-02 07:44:08 51°13.596 2°56.106 4.9 157 13.4 101670 93
2005-06-02 07:44:14 51°13.596 2°56.106 4.8 137 13.4 101670 93
2005-06-02 07:44:19 51°13.597 2°56.106 3.4 148 13.4 101670 93
2005-06-02 07:44:24 51°13.597 2°56.106 3.4 142 13.4 101670 93
2005-06-02 07:44:29 51°13.597 2°56.106 3.1 140 13.4 101670 93
2005-06-02 07:44:34 51°13.597 2°56.106 3.9 120 13.4 101670 93
2005-06-02 07:44:39 51°13.597 2°56.106 4 141 13.4 101670 93
2005-06-02 07:44:44 51°13.597 2°56.106 3.7 123 13.4 101670 93
2005-06-02 07:44:49 51°13.597 2°56.106 4 164 13.4 101670 93
2005-06-02 07:44:54 51°13.597 2°56.106 4 156 13.5 101670 93
2005-06-02 07:44:59 51°13.597 2°56.106 3.5 153 13.5 101670 93
2005-06-02 07:45:04 51°13.597 2°56.107 3.7 152 13.5 101670 93
2005-06-02 07:45:09 51°13.597 2°56.107 4.3 148 13.5 101670 93
2005-06-02 07:45:13 51°13.597 2°56.107 4.4 150 13.5 101670 93
2005-06-02 07:45:19 51°13.597 2°56.106 4.7 156 13.5 101670 93
2005-06-02 07:45:24 51°13.597 2°56.106 6.2 158 13.5 101670 93
2005-06-02 07:45:29 51°13.597 2°56.106 5.4 175 13.5 101670 93
2005-06-02 07:45:34 51°13.597 2°56.106 6.5 169 13.5 101670 93
2005-06-02 07:45:39 51°13.597 2°56.107 5.7 143 13.5 101670 93
2005-06-02 07:45:44 51°13.597 2°56.107 5.7 142 13.5 101670 93
2005-06-02 07:45:49 51°13.597 2°56.107 5.4 226 13.5 101670 93
2005-06-02 07:45:53 51°13.597 2°56.107 5.2 132 13.5 101670 93
2005-06-02 07:45:59 51°13.598 2°56.107 3.9 142 13.5 101670 93
2005-06-02 07:46:04 51°13.598 2°56.108 4.7 150 13.5 101670 93
2005-06-02 07:46:09 51°13.598 2°56.108 3.5 144 13.5 101670 93
2005-06-02 07:46:14 51°13.597 2°56.107 4.1 149 13.5 101670 93
2005-06-02 07:46:19 51°13.598 2°56.107 3.7 142 13.5 101670 93
2005-06-02 07:46:24 51°13.598 2°56.107 4.8 146 13.5 101660 93
2005-06-02 07:46:29 51°13.598 2°56.107 3.2 149 13.5 101660 93
2005-06-02 07:46:34 51°13.598 2°56.107 4.4 153 13.5 101670 93
2005-06-02 07:46:39 51°13.598 2°56.107 4 162 13.5 101670 93
2005-06-02 07:46:44 51°13.598 2°56.107 5.2 166 13.5 101670 93
2005-06-02 07:46:49 51°13.598 2°56.107 5.1 153 13.5 101670 93
2005-06-02 07:46:53 51°13.598 2°56.108 4.5 147 13.5 101670 93
2005-06-02 07:46:59 51°13.598 2°56.108 3.3 159 13.5 101670 93
2005-06-02 07:47:04 51°13.598 2°56.108 5.6 160 13.5 101670 93
2005-06-02 07:47:09 51°13.598 2°56.108 4.6 150 13.5 101670 93
2005-06-02 07:47:14 51°13.598 2°56.108 4.8 169 13.5 101670 93
2005-06-02 07:47:19 51°13.598 2°56.108 5.6 142 13.5 101670 93
2005-06-02 07:47:24 51°13.598 2°56.109 6.5 144 13.5 101670 93
2005-06-02 07:47:28 51°13.598 2°56.109 5.5 138 13.5 101670 93
2005-06-02 07:47:35 51°13.598 2°56.108 4.6 129 13.5 101670 93
2005-06-02 07:47:40 51°13.598 2°56.108 4.1 126 13.5 101670 93
2005-06-02 07:47:44 51°13.598 2°56.108 4.6 117 13.5 101670 93
2005-06-02 07:47:49 51°13.598 2°56.108 4.9 161 13.5 101670 93
2005-06-02 07:47:54 51°13.598 2°56.108 4 157 13.5 101670 93
2005-06-02 07:47:59 51°13.598 2°56.108 5.4 169 13.5 101670 93
2005-06-02 07:48:04 51°13.598 2°56.108 5.2 156 13.5 101670 93
2005-06-02 07:48:09 51°13.599 2°56.108 5.2 171 13.5 101670 93
2005-06-02 07:48:14 51°13.599 2°56.108 6 171 13.5 101670 93
2005-06-02 07:48:19 51°13.599 2°56.108 6.6 148 13.5 101670 93
2005-06-02 07:48:24 51°13.599 2°56.109 6.4 153 13.5 101670 93
2005-06-02 07:48:29 51°13.599 2°56.109 4.4 155 13.5 101670 93
2005-06-02 07:48:34 51°13.599 2°56.109 6.6 163 13.5 101670 93
2005-06-02 07:48:39 51°13.599 2°56.109 7.2 152 13.5 101670 93
2005-06-02 07:48:44 51°13.599 2°56.109 5.7 154 13.5 101670 93
2005-06-02 07:48:49 51°13.599 2°56.109 7 155 13.5 101670 93
2005-06-02 07:48:54 51°13.599 2°56.109 5.6 166 13.5 101670 93
2005-06-02 07:48:59 51°13.599 2°56.109 5.1 150 13.5 101670 93
2005-06-02 07:49:04 51°13.599 2°56.109 5.9 146 13.5 101670 93
2005-06-02 07:49:09 51°13.599 2°56.109 5.5 157 13.5 101670 93
2005-06-02 07:49:14 51°13.599 2°56.109 6.4 152 13.5 101670 93
2005-06-02 07:49:20 51°13.599 2°56.109 4.3 143 13.5 101670 93
2005-06-02 07:49:24 51°13.598 2°56.109 5 146 13.4 101670 93
2005-06-02 07:49:29 51°13.598 2°56.109 4.1 154 13.4 101670 93
2005-06-02 07:49:34 51°13.599 2°56.109 3.5 141 13.5 101670 93
2005-06-02 07:49:39 51°13.598 2°56.109 2.9 158 13.5 101670 93
2005-06-02 07:49:44 51°13.599 2°56.109 3.7 137 13.5 101670 93
2005-06-02 07:49:49 51°13.599 2°56.109 6.6 147 13.5 101670 93
2005-06-02 07:49:54 51°13.598 2°56.109 6.9 142 13.5 101670 93
2005-06-02 07:49:59 51°13.599 2°56.109 8.1 154 13.5 101670 93
2005-06-02 07:50:04 51°13.599 2°56.109 6.3 148 13.5 101670 93
2005-06-02 07:50:09 51°13.599 2°56.109 5.3 143 13.5 101670 93
2005-06-02 07:50:14 51°13.599 2°56.109 5.5 142 13.5 101670 93
2005-06-02 07:50:19 51°13.599 2°56.109 5.7 147 13.5 101670 93
2005-06-02 07:50:24 51°13.598 2°56.109 4.9 145 13.5 101670 93
2005-06-02 07:50:29 51°13.598 2°56.109 3.6 160 13.5 101670 93
2005-06-02 07:50:34 51°13.598 2°56.109 4.3 150 13.5 101670 93
2005-06-02 07:50:39 51°13.598 2°56.109 4.8 165 13.5 101670 93
2005-06-02 07:50:44 51°13.598 2°56.109 4.7 169 13.5 101670 93
2005-06-02 07:50:49 51°13.598 2°56.109 3.9 159 13.5 101670 93
2005-06-02 07:50:54 51°13.598 2°56.109 4.1 161 13.5 101670 93
2005-06-02 07:50:59 51°13.598 2°56.109 3.2 165 13.5 101670 93
2005-06-02 07:51:04 51°13.598 2°56.109 4 171 13.5 101670 93
2005-06-02 07:51:09 51°13.598 2°56.109 3 151 13.5 101670 93
2005-06-02 07:51:13 51°13.598 2°56.109 2.5 165 13.5 101670 93
2005-06-02 07:51:19 51°13.599 2°56.109 2.9 126 13.5 101670 93
2005-06-02 07:51:24 51°13.598 2°56.109 3.2 167 13.5 101670 93
2005-06-02 07:51:29 51°13.599 2°56.109 3.4 152 13.5 101670 93
2005-06-02 07:51:33 51°13.599 2°56.109 4.9 168 13.5 101670 93
2005-06-02 07:51:39 51°13.598 2°56.109 3.1 142 13.5 101670 93
2005-06-02 07:51:44 51°13.599 2°56.109 3 149 13.5 101670 93
2005-06-02 07:51:48 51°13.599 2°56.109 3.9 163 13.5 101670 93
2005-06-02 07:51:54 51°13.599 2°56.109 4.7 152 13.5 101670 93
2005-06-02 07:51:59 51°13.599 2°56.108 4.6 170 13.5 101670 93
2005-06-02 07:52:04 51°13.599 2°56.108 4.7 165 13.5 101670 93
2005-06-02 07:52:09 51°13.599 2°56.108 5.4 158 13.5 101670 93
2005-06-02 07:52:14 51°13.599 2°56.108 5.5 149 13.5 101680 93
2005-06-02 07:52:19 51°13.599 2°56.108 5.8 144 13.5 101680 93
2005-06-02 07:52:24 51°13.599 2°56.108 7 135 13.5 101670 93
2005-06-02 07:52:29 51°13.599 2°56.108 5.8 134 13.5 101670 93
2005-06-02 07:52:34 51°13.599 2°56.108 6.5 119 13.5 101670 93
2005-06-02 07:52:39 51°13.599 2°56.108 5.2 136 13.5 101670 93
2005-06-02 07:52:44 51°13.599 2°56.108 4.5 143 13.5 101670 93
2005-06-02 07:52:49 51°13.599 2°56.108 5.6 144 13.5 101670 93
2005-06-02 07:52:54 51°13.599 2°56.108 4.8 175 13.5 101670 93
2005-06-02 07:53:00 51°13.599 2°56.108 5.4 139 13.5 101670 93
2005-06-02 07:53:04 51°13.599 2°56.108 6.4 138 13.5 101670 93
2005-06-02 07:53:09 51°13.599 2°56.108 6.7 160 13.5 101670 93
2005-06-02 07:53:14 51°13.599 2°56.109 5.6 151 13.5 101670 93
2005-06-02 07:53:19 51°13.599 2°56.109 7 147 13.5 101670 93
2005-06-02 07:53:24 51°13.599 2°56.109 6.4 149 13.5 101670 93
2005-06-02 07:53:29 51°13.599 2°56.109 4.7 148 13.5 101670 93
2005-06-02 07:53:34 51°13.599 2°56.109 5.8 147 13.5 101670 93
2005-06-02 07:53:39 51°13.599 2°56.109 5.5 141 13.5 101670 93
2005-06-02 07:53:44 51°13.599 2°56.109 5 141 13.5 101670 93
2005-06-02 07:53:49 51°13.599 2°56.109 5.1 140 13.5 101670 93
2005-06-02 07:53:53 51°13.599 2°56.109 4.2 143 13.5 101670 93
2005-06-02 07:53:59 51°13.599 2°56.109 3.6 158 13.5 101670 93
2005-06-02 07:54:04 51°13.599 2°56.108 4.1 174 13.5 101670 93
2005-06-02 07:54:08 51°13.599 2°56.108 5.1 167 13.5 101670 93
2005-06-02 07:54:14 51°13.599 2°56.108 4.8 147 13.5 101670 93
2005-06-02 07:54:19 51°13.599 2°56.109 5.1 136 13.5 101670 93
2005-06-02 07:54:24 51°13.599 2°56.109 5 172 13.5 101670 93
2005-06-02 07:54:29 51°13.598 2°56.109 6.1 165 13.5 101670 93
2005-06-02 07:54:33 51°13.599 2°56.109 5.7 159 13.5 101670 93
2005-06-02 07:54:39 51°13.599 2°56.109 5.4 157 13.5 101670 93
2005-06-02 07:54:44 51°13.599 2°56.109 6 147 13.5 101670 93
2005-06-02 07:54:49 51°13.599 2°56.109 5.4 129 13.5 101670 93
2005-06-02 07:54:54 51°13.599 2°56.109 6.8 137 13.5 101670 93
2005-06-02 07:54:59 51°13.599 2°56.109 5 147 13.5 101670 93
2005-06-02 07:55:04 51°13.599 2°56.11 5.4 134 13.5 101670 93
2005-06-02 07:55:09 51°13.599 2°56.11 7.2 156 13.5 101670 93
2005-06-02 07:55:14 51°13.599 2°56.11 7.3 160 13.5 101670 93
2005-06-02 07:55:19 51°13.599 2°56.11 6 141 13.5 101670 93
2005-06-02 07:55:24 51°13.599 2°56.11 5.7 141 13.5 101670 93
2005-06-02 07:55:28 51°13.599 2°56.11 5.1 138 13.5 101670 93
2005-06-02 07:55:33 51°13.599 2°56.11 5.7 144 13.6 101670 93
2005-06-02 07:55:40 51°13.598 2°56.11 4.7 137 13.6 101670 93
2005-06-02 07:55:44 51°13.598 2°56.11 4 137 13.5 101670 93
2005-06-02 07:55:49 51°13.598 2°56.11 4.9 152 13.5 101670 93
2005-06-02 07:55:54 51°13.598 2°56.11 4.5 145 13.5 101670 93
2005-06-02 07:56:00 51°13.599 2°56.11 5.1 44 13.5 101670 93
2005-06-02 07:56:04 51°13.599 2°56.11 3.5 144 13.6 101670 93
2005-06-02 07:56:09 51°13.598 2°56.11 3.5 145 13.6 101670 93
2005-06-02 07:56:14 51°13.598 2°56.11 3.2 154 13.6 101670 93
2005-06-02 07:56:19 51°13.598 2°56.11 2.8 159 13.6 101670 93
2005-06-02 07:56:24 51°13.599 2°56.11 3.6 170 13.6 101670 93
2005-06-02 07:56:29 51°13.599 2°56.11 4.5 142 13.6 101670 93
2005-06-02 07:56:33 51°13.598 2°56.11 5 155 13.5 101670 93
2005-06-02 07:56:39 51°13.598 2°56.11 4.1 153 13.5 101670 93
2005-06-02 07:56:44 51°13.598 2°56.11 3.8 143 13.6 101670 93
2005-06-02 07:56:49 51°13.599 2°56.11 2.6 110 13.6 101670 93
2005-06-02 07:56:54 51°13.599 2°56.11 3.9 153 13.6 101670 93
2005-06-02 07:56:59 51°13.599 2°56.11 4.4 154 13.6 101670 93
2005-06-02 07:57:04 51°13.599 2°56.11 3.9 134 13.6 101670 93
2005-06-02 07:57:09 51°13.598 2°56.109 4.6 151 13.6 101670 93
2005-06-02 07:57:13 51°13.598 2°56.11 4.9 151 13.6 101670 93
2005-06-02 07:57:19 51°13.598 2°56.109 5.4 154 13.6 101670 93
2005-06-02 07:57:24 51°13.598 2°56.109 4.3 153 13.6 101670 93
2005-06-02 07:57:29 51°13.598 2°56.109 4.3 157 13.6 101670 93
2005-06-02 07:57:34 51°13.598 2°56.109 4.7 158 13.6 101670 93
2005-06-02 07:57:39 51°13.598 2°56.108 4.3 161 13.6 101670 93
2005-06-02 07:57:44 51°13.598 2°56.108 6.1 171 13.6 101670 93
2005-06-02 07:57:49 51°13.598 2°56.108 5.9 166 13.6 101670 93
2005-06-02 07:57:54 51°13.598 2°56.108 4.8 154 13.6 101670 93
2005-06-02 07:57:59 51°13.598 2°56.108 5.6 170 13.6 101670 93
2005-06-02 07:58:04 51°13.598 2°56.108 3.7 177 13.6 101670 93
2005-06-02 07:58:09 51°13.598 2°56.108 5.8 147 13.6 101670 93
2005-06-02 07:58:13 51°13.598 2°56.108 4.4 142 13.6 101670 93
2005-06-02 07:58:19 51°13.598 2°56.108 4.1 153 13.6 101670 93
2005-06-02 07:58:24 51°13.598 2°56.108 3.8 160 13.6 101670 93
2005-06-02 07:58:28 51°13.598 2°56.108 3.8 165 13.6 101670 93
2005-06-02 07:58:34 51°13.598 2°56.108 3.8 162 13.6 101660 93
2005-06-02 07:58:39 51°13.598 2°56.108 3.5 140 13.6 101660 93
2005-06-02 07:58:44 51°13.598 2°56.108 4.2 159 13.6 101670 93
2005-06-02 07:58:49 51°13.598 2°56.107 3.9 146 13.6 101670 93
2005-06-02 07:58:54 51°13.598 2°56.107 3.8 151 13.6 101670 93
2005-06-02 07:58:59 51°13.597 2°56.107 3.3 143 13.6 101670 93
2005-06-02 07:59:04 51°13.597 2°56.107 3.4 137 13.6 101670 93
2005-06-02 07:59:09 51°13.597 2°56.107 3.1 145 13.6 101670 93
2005-06-02 07:59:14 51°13.597 2°56.107 3.3 151 13.6 101670 93
2005-06-02 07:59:19 51°13.597 2°56.107 3.7 156 13.6 101670 93
2005-06-02 07:59:24 51°13.598 2°56.107 4.1 135 13.6 101670 93
2005-06-02 07:59:29 51°13.598 2°56.108 3.7 143 13.6 101670 93
2005-06-02 07:59:33 51°13.598 2°56.108 5 143 13.6 101670 93
2005-06-02 07:59:39 51°13.598 2°56.108 3.5 135 13.6 101670 93
2005-06-02 07:59:44 51°13.598 2°56.108 3.8 147 13.6 101670 93
2005-06-02 07:59:49 51°13.598 2°56.108 5.7 149 13.6 101670 93
2005-06-02 07:59:53 51°13.598 2°56.108 5.3 136 13.6 101670 93
2005-06-02 07:59:59 51°13.598 2°56.108 6.1 119 13.6 101670 93
2005-06-02 08:00:04 51°13.598 2°56.108 5.6 138 13.6 101670 93
2005-06-02 08:00:09 51°13.598 2°56.108 5.5 108 13.6 101670 93
2005-06-02 08:00:15 51°13.598 2°56.108 4.9 89 13.6 101670 93
2005-06-02 08:00:20 51°13.598 2°56.108 5.3 133 13.6 101670 93
2005-06-02 08:00:24 51°13.598 2°56.108 4.5 120 13.6 101670 93
2005-06-02 08:00:29 51°13.598 2°56.108 5.4 130 13.6 101670 93
2005-06-02 08:00:33 51°13.598 2°56.109 5 226 13.6 101670 93
2005-06-02 08:00:40 51°13.598 2°56.108 5.6 136 13.6 101670 93
2005-06-02 08:00:44 51°13.598 2°56.108 4.8 134 13.6 101660 93
2005-06-02 08:00:49 51°13.598 2°56.108 3.6 84 13.6 101660 93
2005-06-02 08:00:54 51°13.598 2°56.108 3.9 120 13.6 101660 93
2005-06-02 08:01:00 51°13.598 2°56.108 4.3 123 13.6 101660 93
2005-06-02 08:01:04 51°13.598 2°56.109 2.9 140 13.6 101660 93
2005-06-02 08:01:09 51°13.598 2°56.109 2.8 136 13.6 101660 93
2005-06-02 08:01:13 51°13.598 2°56.109 3.9 150 13.6 101660 93
2005-06-02 08:01:19 51°13.598 2°56.109 3.9 140 13.6 101660 93
2005-06-02 08:01:24 51°13.598 2°56.109 4.7 130 13.6 101660 93
2005-06-02 08:01:29 51°13.598 2°56.109 3.1 145 13.6 101660 93
2005-06-02 08:01:34 51°13.598 2°56.109 4.7 226 13.6 101670 93
2005-06-02 08:01:39 51°13.598 2°56.109 4 144 13.6 101670 93
2005-06-02 08:01:44 51°13.598 2°56.11 2.8 167 13.7 101670 93
2005-06-02 08:01:49 51°13.598 2°56.109 4.7 145 13.7 101670 93
2005-06-02 08:01:53 51°13.597 2°56.109 4.5 155 13.7 101670 93
2005-06-02 08:01:59 51°13.597 2°56.108 3.6 143 13.7 101670 93
2005-06-02 08:02:04 51°13.597 2°56.108 3.3 154 13.7 101670 93
2005-06-02 08:02:09 51°13.597 2°56.108 3.4 159 13.7 101670 93
2005-06-02 08:02:13 51°13.597 2°56.108 3.3 142 13.7 101670 93
2005-06-02 08:02:20 51°13.597 2°56.108 3.5 144 13.7 101670 93
2005-06-02 08:02:24 51°13.597 2°56.108 3.2 136 13.7 101670 93
2005-06-02 08:02:29 51°13.597 2°56.108 3.5 144 13.7 101670 93
2005-06-02 08:02:33 51°13.597 2°56.108 3.5 152 13.7 101670 93
2005-06-02 08:02:39 51°13.597 2°56.108 5.1 158 13.7 101670 93
2005-06-02 08:02:44 51°13.597 2°56.108 4.4 142 13.7 101660 93
2005-06-02 08:02:49 51°13.597 2°56.108 3.6 146 13.7 101660 93
2005-06-02 08:02:53 51°13.597 2°56.108 3.9 143 13.7 101670 93
2005-06-02 08:02:59 51°13.597 2°56.108 3.9 132 13.7 101670 93
2005-06-02 08:03:04 51°13.597 2°56.108 3.6 123 13.7 101670 93
2005-06-02 08:03:09 51°13.597 2°56.108 3.7 145 13.7 101670 93
2005-06-02 08:03:14 51°13.598 2°56.108 2.9 127 13.7 101660 93
2005-06-02 08:03:19 51°13.597 2°56.108 3.2 140 13.7 101660 93
2005-06-02 08:03:24 51°13.597 2°56.108 2.3 155 13.7 101670 93
2005-06-02 08:03:29 51°13.597 2°56.108 2.6 137 13.7 101670 93
2005-06-02 08:03:34 51°13.597 2°56.108 2.4 122 13.7 101660 93
2005-06-02 08:03:39 51°13.598 2°56.108 2.4 146 13.7 101660 93
2005-06-02 08:03:44 51°13.597 2°56.108 2.8 132 13.7 101660 93
2005-06-02 08:03:49 51°13.597 2°56.108 2.8 125 13.7 101660 93
2005-06-02 08:03:54 51°13.598 2°56.108 3.1 132 13.7 101670 94
2005-06-02 08:03:59 51°13.598 2°56.108 2.6 158 13.7 101670 94
2005-06-02 08:04:04 51°13.598 2°56.108 2.2 149 13.8 101660 94